C/2003 F1 ( LINEAR )

Japanese version
Home page
Updated on November 29, 2003

---------------------------------------------------------------------

* Profile

Discovery Date March 23, 2003
Magnitude 18.2 mag
Discoverer Lincoln Laboratory Near-Earth Asteroid Research project

* Pictures

* Orbital Elements

Epoch 2003 June 10.0 TT = JDT 2452800.5
T 2003 June 28.42338 TT                                 MPC
q   4.0078342            (2000.0)            P               Q
n   0.01049477     Peri.  121.18184     -0.31191401     +0.13753606
a  20.6611250      Node    87.48796     -0.78316751     -0.59742124
e   0.8060205      Incl.   70.22139     +0.53792034     -0.79004538
P  93.91
>From 1068 observations 2003 Mar. 23-Aug. 4, mean residual 0".60.

* Finding Charts

* Magnitudes Graph

        m1 = 8.0 + 5 log d + 10.0 log r

---------------------------------------------------------------------

The orbital elements are published on M.P.E.C. 2003-P14.
The charts are made with StellaNavigator Ver.2.0 for Windows (AstroArts / ASCII).
The magnitudes graphs are made with Comet for Windows.

---------------------------------------------------------------------

Copyright(C) Seiichi Yoshida (comet@aerith.net). All rights reserved.